CN,EVAL_CN,ATTRIBUTE_NBR,STATECD,CREATED_BY,CREATED_DATE,CREATED_IN_INSTANCE,MODIFIED_BY,MODIFIED_DATE,MODIFIED_IN_INSTANCE
1465678755290487,306867860489998,253,23,MAHATFIELD,2023-09-13 06:18:54,290487,,,
1465678756290487,306867860489998,254,23,MAHATFIELD,2023-09-13 06:18:54,290487,,,
1465678757290487,306867860489998,256,23,MAHATFIELD,2023-09-13 06:18:54,290487,,,
1465678758290487,306867860489998,257,23,MAHATFIELD,2023-09-13 06:18:54,290487,,,
1465678759290487,306867860489998,258,23,MAHATFIELD,2023-09-13 06:18:54,290487,,,
1465678760290487,306867860489998,259,23,MAHATFIELD,2023-09-13 06:18:54,290487,,,
1465678761290487,306867860489998,260,23,MAHATFIELD,2023-09-13 06:18:54,290487,,,
1465678762290487,306867860489998,311,23,MAHATFIELD,2023-09-13 06:18:54,290487,,,
1465678763290487,306867860489998,312,23,MAHATFIELD,2023-09-13 06:18:54,290487,,,
1465679111290487,306867860489998,574104,23,MAHATFIELD,2023-09-13 06:18:54,290487,,,
1465679108290487,306867860489998,574101,23,MAHATFIELD,2023-09-13 06:18:54,290487,,,
1465679109290487,306867860489998,574102,23,MAHATFIELD,2023-09-13 06:18:54,290487,,,
1465679110290487,306867860489998,574103,23,MAHATFIELD,2023-09-13 06:18:54,290487,,,
1465679112290487,306867860489998,574105,23,MAHATFIELD,2023-09-13 06:18:54,290487,,,
1465679113290487,306867860489998,574106,23,MAHATFIELD,2023-09-13 06:18:54,290487,,,
1465679114290487,306867860489998,574107,23,MAHATFIELD,2023-09-13 06:18:54,290487,,,
1465679115290487,306867860489998,574108,23,MAHATFIELD,2023-09-13 06:18:54,290487,,,
1465679116290487,306867860489998,574109,23,MAHATFIELD,2023-09-13 06:18:54,290487,,,
1465679117290487,306867860489998,574110,23,MAHATFIELD,2023-09-13 06:18:54,290487,,,
1465679118290487,306867860489998,574111,23,MAHATFIELD,2023-09-13 06:18:54,290487,,,
1465732741290487,1208205142290487,2203,23,MAHATFIELD,2023-09-13 06:19:08,290487,,,
1465732742290487,1208205142290487,2204,23,MAHATFIELD,2023-09-13 06:19:08,290487,,,
1465732743290487,1208205142290487,2205,23,MAHATFIELD,2023-09-13 06:19:08,290487,,,
1465732744290487,1208205142290487,2206,23,MAHATFIELD,2023-09-13 06:19:08,290487,,,
1465732745290487,1208205142290487,2208,23,MAHATFIELD,2023-09-13 06:19:08,290487,,,
1465732746290487,1208205142290487,2209,23,MAHATFIELD,2023-09-13 06:19:08,290487,,,
1465732747290487,1208205142290487,2210,23,MAHATFIELD,2023-09-13 06:19:08,290487,,,
1465732748290487,1208205142290487,2211,23,MAHATFIELD,2023-09-13 06:19:08,290487,,,
1465732749290487,1208205142290487,2212,23,MAHATFIELD,2023-09-13 06:19:08,290487,,,
1465732750290487,1208205142290487,2311,23,MAHATFIELD,2023-09-13 06:19:08,290487,,,
1465732751290487,1208205142290487,2312,23,MAHATFIELD,2023-09-13 06:19:08,290487,,,
1465732752290487,1208205142290487,2313,23,MAHATFIELD,2023-09-13 06:19:08,290487,,,
1465732753290487,1208205142290487,2314,23,MAHATFIELD,2023-09-13 06:19:08,290487,,,
1465732754290487,1208205142290487,2315,23,MAHATFIELD,2023-09-13 06:19:08,290487,,,
1465732755290487,1208205142290487,2316,23,MAHATFIELD,2023-09-13 06:19:08,290487,,,
1465732756290487,1208205142290487,2317,23,MAHATFIELD,2023-09-13 06:19:08,290487,,,
1465732757290487,1208205142290487,2318,23,MAHATFIELD,2023-09-13 06:19:08,290487,,,
1465732758290487,1208205142290487,2319,23,MAHATFIELD,2023-09-13 06:19:08,290487,,,
1465732759290487,1208205142290487,2320,23,MAHATFIELD,2023-09-13 06:19:08,290487,,,
1465732760290487,1208205142290487,2321,23,MAHATFIELD,2023-09-13 06:19:08,290487,,,
1465732761290487,1208205142290487,2322,23,MAHATFIELD,2023-09-13 06:19:08,290487,,,
1465732762290487,1208205142290487,2635,23,MAHATFIELD,2023-09-13 06:19:08,290487,,,
1465732763290487,1208205142290487,2636,23,MAHATFIELD,2023-09-13 06:19:08,290487,,,
1465732764290487,1208205142290487,2637,23,MAHATFIELD,2023-09-13 06:19:08,290487,,,
1465732765290487,1208205142290487,2638,23,MAHATFIELD,2023-09-13 06:19:08,290487,,,
1465732766290487,1208205142290487,2639,23,MAHATFIELD,2023-09-13 06:19:08,290487,,,
1465732675290487,1208205142290487,412,23,MAHATFIELD,2023-09-13 06:19:08,290487,,,
1465732769290487,1208205142290487,2642,23,MAHATFIELD,2023-09-13 06:19:08,290487,,,
1465732767290487,1208205142290487,2640,23,MAHATFIELD,2023-09-13 06:19:08,290487,,,
1465732768290487,1208205142290487,2641,23,MAHATFIELD,2023-09-13 06:19:08,290487,,,
1465732770290487,1208205142290487,2649,23,MAHATFIELD,2023-09-13 06:19:08,290487,,,
1465732771290487,1208205142290487,2650,23,MAHATFIELD,2023-09-13 06:19:08,290487,,,
1465732772290487,1208205142290487,2651,23,MAHATFIELD,2023-09-13 06:19:08,290487,,,
1465732773290487,1208205142290487,2652,23,MAHATFIELD,2023-09-13 06:19:08,290487,,,
1465732774290487,1208205142290487,2653,23,MAHATFIELD,2023-09-13 06:19:08,290487,,,
1465732775290487,1208205142290487,2654,23,MAHATFIELD,2023-09-13 06:19:08,290487,,,
1465732776290487,1208205142290487,2661,23,MAHATFIELD,2023-09-13 06:19:08,290487,,,
1465732777290487,1208205142290487,2662,23,MAHATFIELD,2023-09-13 06:19:08,290487,,,
1465732778290487,1208205142290487,2665,23,MAHATFIELD,2023-09-13 06:19:08,290487,,,
1465732779290487,1208205142290487,2667,23,MAHATFIELD,2023-09-13 06:19:08,290487,,,
1465732780290487,1208205142290487,2668,23,MAHATFIELD,2023-09-13 06:19:08,290487,,,
1465732781290487,1208205142290487,2669,23,MAHATFIELD,2023-09-13 06:19:08,290487,,,
1465732782290487,1208205142290487,2674,23,MAHATFIELD,2023-09-13 06:19:08,290487,,,
1465732783290487,1208205142290487,2675,23,MAHATFIELD,2023-09-13 06:19:08,290487,,,
1465732784290487,1208205142290487,2676,23,MAHATFIELD,2023-09-13 06:19:08,290487,,,
1465732785290487,1208205142290487,2677,23,MAHATFIELD,2023-09-13 06:19:08,290487,,,
1465732786290487,1208205142290487,2680,23,MAHATFIELD,2023-09-13 06:19:08,290487,,,
1465732787290487,1208205142290487,2681,23,MAHATFIELD,2023-09-13 06:19:08,290487,,,
1465732788290487,1208205142290487,2682,23,MAHATFIELD,2023-09-13 06:19:08,290487,,,
1465732789290487,1208205142290487,2683,23,MAHATFIELD,2023-09-13 06:19:08,290487,,,
1465732790290487,1208205142290487,11087,23,MAHATFIELD,2023-09-13 06:19:08,290487,,,
1465732791290487,1208205142290487,11088,23,MAHATFIELD,2023-09-13 06:19:08,290487,,,
1465732792290487,1208205142290487,11089,23,MAHATFIELD,2023-09-13 06:19:08,290487,,,
1465732793290487,1208205142290487,11090,23,MAHATFIELD,2023-09-13 06:19:08,290487,,,
1465732794290487,1208205142290487,11091,23,MAHATFIELD,2023-09-13 06:19:08,290487,,,
1465732795290487,1208205142290487,11092,23,MAHATFIELD,2023-09-13 06:19:08,290487,,,
1465732796290487,1208205142290487,11093,23,MAHATFIELD,2023-09-13 06:19:08,290487,,,
1465732797290487,1208205142290487,11094,23,MAHATFIELD,2023-09-13 06:19:08,290487,,,
1465732798290487,1208205142290487,11095,23,MAHATFIELD,2023-09-13 06:19:08,290487,,,
1465732799290487,1208205142290487,11096,23,MAHATFIELD,2023-09-13 06:19:08,290487,,,
1465732800290487,1208205142290487,11097,23,MAHATFIELD,2023-09-13 06:19:08,290487,,,
1465732801290487,1208205142290487,11098,23,MAHATFIELD,2023-09-13 06:19:08,290487,,,
1465732802290487,1208205142290487,11099,23,MAHATFIELD,2023-09-13 06:19:08,290487,,,
1465732803290487,1208205142290487,11100,23,MAHATFIELD,2023-09-13 06:19:08,290487,,,
1465732804290487,1208205142290487,11101,23,MAHATFIELD,2023-09-13 06:19:08,290487,,,
1465732805290487,1208205142290487,11102,23,MAHATFIELD,2023-09-13 06:19:08,290487,,,
1465732806290487,1208205142290487,11103,23,MAHATFIELD,2023-09-13 06:19:08,290487,,,
1465732807290487,1208205142290487,11104,23,MAHATFIELD,2023-09-13 06:19:08,290487,,,
1465732808290487,1208205142290487,11105,23,MAHATFIELD,2023-09-13 06:19:08,290487,,,
1465732809290487,1208205142290487,11106,23,MAHATFIELD,2023-09-13 06:19:08,290487,,,
1465732810290487,1208205142290487,11107,23,MAHATFIELD,2023-09-13 06:19:08,290487,,,
1465732811290487,1208205142290487,11108,23,MAHATFIELD,2023-09-13 06:19:08,290487,,,
1465732812290487,1208205142290487,11109,23,MAHATFIELD,2023-09-13 06:19:08,290487,,,
1465732813290487,1208205142290487,11110,23,MAHATFIELD,2023-09-13 06:19:08,290487,,,
1465732814290487,1208205142290487,11111,23,MAHATFIELD,2023-09-13 06:19:08,290487,,,
1465732815290487,1208205142290487,11112,23,MAHATFIELD,2023-09-13 06:19:08,290487,,,
1465732816290487,1208205142290487,11113,23,MAHATFIELD,2023-09-13 06:19:08,290487,,,
1465732817290487,1208205142290487,11114,23,MAHATFIELD,2023-09-13 06:19:08,290487,,,
1465732818290487,1208205142290487,11143,23,MAHATFIELD,2023-09-13 06:19:08,290487,,,
1465732819290487,1208205142290487,11144,23,MAHATFIELD,2023-09-13 06:19:08,290487,,,
1465732820290487,1208205142290487,11145,23,MAHATFIELD,2023-09-13 06:19:08,290487,,,
1465732821290487,1208205142290487,11146,23,MAHATFIELD,2023-09-13 06:19:08,290487,,,
1465732822290487,1208205142290487,11147,23,MAHATFIELD,2023-09-13 06:19:08,290487,,,
1465732823290487,1208205142290487,11148,23,MAHATFIELD,2023-09-13 06:19:08,290487,,,
1465732824290487,1208205142290487,11149,23,MAHATFIELD,2023-09-13 06:19:08,290487,,,
1465732825290487,1208205142290487,11150,23,MAHATFIELD,2023-09-13 06:19:08,290487,,,
1465732826290487,1208205142290487,11151,23,MAHATFIELD,2023-09-13 06:19:08,290487,,,
1465732827290487,1208205142290487,11152,23,MAHATFIELD,2023-09-13 06:19:08,290487,,,
1465732828290487,1208205142290487,11153,23,MAHATFIELD,2023-09-13 06:19:08,290487,,,
1465732829290487,1208205142290487,11154,23,MAHATFIELD,2023-09-13 06:19:08,290487,,,
1465732830290487,1208205142290487,11155,23,MAHATFIELD,2023-09-13 06:19:08,290487,,,
1465732831290487,1208205142290487,11156,23,MAHATFIELD,2023-09-13 06:19:08,290487,,,
1465732832290487,1208205142290487,11157,23,MAHATFIELD,2023-09-13 06:19:08,290487,,,
1465732833290487,1208205142290487,11158,23,MAHATFIELD,2023-09-13 06:19:08,290487,,,
1465732834290487,1208205142290487,11159,23,MAHATFIELD,2023-09-13 06:19:08,290487,,,
1465732835290487,1208205142290487,11160,23,MAHATFIELD,2023-09-13 06:19:08,290487,,,
1465732836290487,1208205142290487,11161,23,MAHATFIELD,2023-09-13 06:19:08,290487,,,
1465732837290487,1208205142290487,11162,23,MAHATFIELD,2023-09-13 06:19:08,290487,,,
1465732838290487,1208205142290487,11163,23,MAHATFIELD,2023-09-13 06:19:08,290487,,,
1465732839290487,1208205142290487,11164,23,MAHATFIELD,2023-09-13 06:19:08,290487,,,
1465732840290487,1208205142290487,11165,23,MAHATFIELD,2023-09-13 06:19:08,290487,,,
1465732841290487,1208205142290487,11166,23,MAHATFIELD,2023-09-13 06:19:08,290487,,,
1465732842290487,1208205142290487,11167,23,MAHATFIELD,2023-09-13 06:19:08,290487,,,
1465732843290487,1208205142290487,11168,23,MAHATFIELD,2023-09-13 06:19:08,290487,,,
1465732844290487,1208205142290487,11169,23,MAHATFIELD,2023-09-13 06:19:08,290487,,,
1465732845290487,1208205142290487,11170,23,MAHATFIELD,2023-09-13 06:19:08,290487,,,
1465732846290487,1208205142290487,11185,23,MAHATFIELD,2023-09-13 06:19:08,290487,,,
1465732847290487,1208205142290487,11186,23,MAHATFIELD,2023-09-13 06:19:08,290487,,,
1465732848290487,1208205142290487,11187,23,MAHATFIELD,2023-09-13 06:19:08,290487,,,
1465538785290487,465707162489998,2682,23,MAHATFIELD,2023-09-13 06:18:17,290487,,,
1465538786290487,465707162489998,2683,23,MAHATFIELD,2023-09-13 06:18:17,290487,,,
1465538787290487,465707162489998,11087,23,MAHATFIELD,2023-09-13 06:18:17,290487,,,
1465538788290487,465707162489998,11088,23,MAHATFIELD,2023-09-13 06:18:17,290487,,,
1465538789290487,465707162489998,11089,23,MAHATFIELD,2023-09-13 06:18:17,290487,,,
1465538790290487,465707162489998,11090,23,MAHATFIELD,2023-09-13 06:18:17,290487,,,
1465538791290487,465707162489998,11091,23,MAHATFIELD,2023-09-13 06:18:17,290487,,,
1465538792290487,465707162489998,11092,23,MAHATFIELD,2023-09-13 06:18:17,290487,,,
1465538793290487,465707162489998,11093,23,MAHATFIELD,2023-09-13 06:18:17,290487,,,
1465538794290487,465707162489998,11094,23,MAHATFIELD,2023-09-13 06:18:17,290487,,,
1465538795290487,465707162489998,11095,23,MAHATFIELD,2023-09-13 06:18:17,290487,,,
1465538796290487,465707162489998,11096,23,MAHATFIELD,2023-09-13 06:18:17,290487,,,
1465538797290487,465707162489998,11097,23,MAHATFIELD,2023-09-13 06:18:17,290487,,,
1465538798290487,465707162489998,11098,23,MAHATFIELD,2023-09-13 06:18:17,290487,,,
1465538799290487,465707162489998,11099,23,MAHATFIELD,2023-09-13 06:18:17,290487,,,
1465538800290487,465707162489998,11100,23,MAHATFIELD,2023-09-13 06:18:17,290487,,,
1465538801290487,465707162489998,11101,23,MAHATFIELD,2023-09-13 06:18:17,290487,,,
1465538802290487,465707162489998,11102,23,MAHATFIELD,2023-09-13 06:18:17,290487,,,
1465538803290487,465707162489998,11103,23,MAHATFIELD,2023-09-13 06:18:17,290487,,,
1465538804290487,465707162489998,11104,23,MAHATFIELD,2023-09-13 06:18:17,290487,,,
1465538805290487,465707162489998,11105,23,MAHATFIELD,2023-09-13 06:18:17,290487,,,
1465538806290487,465707162489998,11106,23,MAHATFIELD,2023-09-13 06:18:17,290487,,,
1465538807290487,465707162489998,11107,23,MAHATFIELD,2023-09-13 06:18:17,290487,,,
1465538808290487,465707162489998,11108,23,MAHATFIELD,2023-09-13 06:18:17,290487,,,
1466012169290487,465707163489998,104,23,MAHATFIELD,2023-09-14 06:29:32,290487,,,
1466012170290487,465707163489998,105,23,MAHATFIELD,2023-09-14 06:29:32,290487,,,
1466012171290487,465707163489998,106,23,MAHATFIELD,2023-09-14 06:29:32,290487,,,
1466012172290487,465707163489998,107,23,MAHATFIELD,2023-09-14 06:29:32,290487,,,
1466012173290487,465707163489998,108,23,MAHATFIELD,2023-09-14 06:29:32,290487,,,
1466012174290487,465707163489998,109,23,MAHATFIELD,2023-09-14 06:29:32,290487,,,
1466012175290487,465707163489998,110,23,MAHATFIELD,2023-09-14 06:29:32,290487,,,
1466012176290487,465707163489998,111,23,MAHATFIELD,2023-09-14 06:29:32,290487,,,
1466012177290487,465707163489998,112,23,MAHATFIELD,2023-09-14 06:29:32,290487,,,
1466012178290487,465707163489998,114,23,MAHATFIELD,2023-09-14 06:29:32,290487,,,
1466012179290487,465707163489998,115,23,MAHATFIELD,2023-09-14 06:29:32,290487,,,
1466012180290487,465707163489998,116,23,MAHATFIELD,2023-09-14 06:29:32,290487,,,
1466012181290487,465707163489998,117,23,MAHATFIELD,2023-09-14 06:29:32,290487,,,
1466012182290487,465707163489998,118,23,MAHATFIELD,2023-09-14 06:29:32,290487,,,
1466012183290487,465707163489998,119,23,MAHATFIELD,2023-09-14 06:29:32,290487,,,
1466012184290487,465707163489998,120,23,MAHATFIELD,2023-09-14 06:29:32,290487,,,
1466012185290487,465707163489998,121,23,MAHATFIELD,2023-09-14 06:29:32,290487,,,
1466012186290487,465707163489998,122,23,MAHATFIELD,2023-09-14 06:29:32,290487,,,
1466012187290487,465707163489998,123,23,MAHATFIELD,2023-09-14 06:29:32,290487,,,
1465643312290487,465707161489998,1008,23,MAHATFIELD,2023-09-13 06:18:44,290487,,,
1465643313290487,465707161489998,1020,23,MAHATFIELD,2023-09-13 06:18:44,290487,,,
1465643314290487,465707161489998,1021,23,MAHATFIELD,2023-09-13 06:18:44,290487,,,
1465643315290487,465707161489998,11000,23,MAHATFIELD,2023-09-13 06:18:44,290487,,,
1465643316290487,465707161489998,11001,23,MAHATFIELD,2023-09-13 06:18:44,290487,,,
1465643317290487,465707161489998,11002,23,MAHATFIELD,2023-09-13 06:18:44,290487,,,
1465732980290487,1208205142290487,574105,23,MAHATFIELD,2023-09-13 06:19:08,290487,,,
1465732981290487,1208205142290487,574106,23,MAHATFIELD,2023-09-13 06:19:08,290487,,,
1465732982290487,1208205142290487,574107,23,MAHATFIELD,2023-09-13 06:19:08,290487,,,
1465732983290487,1208205142290487,574108,23,MAHATFIELD,2023-09-13 06:19:08,290487,,,
1465732984290487,1208205142290487,574109,23,MAHATFIELD,2023-09-13 06:19:08,290487,,,
1465732985290487,1208205142290487,574110,23,MAHATFIELD,2023-09-13 06:19:08,290487,,,
1465732986290487,1208205142290487,574111,23,MAHATFIELD,2023-09-13 06:19:08,290487,,,
1465732987290487,1208205142290487,574112,23,MAHATFIELD,2023-09-13 06:19:08,290487,,,
1465732988290487,1208205142290487,574113,23,MAHATFIELD,2023-09-13 06:19:08,290487,,,
1465732989290487,1208205142290487,574114,23,MAHATFIELD,2023-09-13 06:19:08,290487,,,
1465732990290487,1208205142290487,574115,23,MAHATFIELD,2023-09-13 06:19:08,290487,,,
1465732991290487,1208205142290487,574116,23,MAHATFIELD,2023-09-13 06:19:08,290487,,,
1465732992290487,1208205142290487,574117,23,MAHATFIELD,2023-09-13 06:19:08,290487,,,
1465732993290487,1208205142290487,574118,23,MAHATFIELD,2023-09-13 06:19:08,290487,,,
1465732994290487,1208205142290487,574119,23,MAHATFIELD,2023-09-13 06:19:08,290487,,,
1465732995290487,1208205142290487,574120,23,MAHATFIELD,2023-09-13 06:19:08,290487,,,
1465732996290487,1208205142290487,574121,23,MAHATFIELD,2023-09-13 06:19:08,290487,,,
1465732997290487,1208205142290487,574122,23,MAHATFIELD,2023-09-13 06:19:08,290487,,,
1465732998290487,1208205142290487,574123,23,MAHATFIELD,2023-09-13 06:19:08,290487,,,
1465732999290487,1208205142290487,574124,23,MAHATFIELD,2023-09-13 06:19:08,290487,,,
1465733000290487,1208205142290487,574125,23,MAHATFIELD,2023-09-13 06:19:08,290487,,,
1465733001290487,1208205142290487,574126,23,MAHATFIELD,2023-09-13 06:19:08,290487,,,
1465733002290487,1208205142290487,574127,23,MAHATFIELD,2023-09-13 06:19:08,290487,,,
1465733003290487,1208205142290487,574128,23,MAHATFIELD,2023-09-13 06:19:08,290487,,,
1465733004290487,1208205142290487,574129,23,MAHATFIELD,2023-09-13 06:19:08,290487,,,
1465733005290487,1208205142290487,574130,23,MAHATFIELD,2023-09-13 06:19:08,290487,,,
1465733006290487,1208205142290487,574131,23,MAHATFIELD,2023-09-13 06:19:08,290487,,,
1465733007290487,1208205142290487,574132,23,MAHATFIELD,2023-09-13 06:19:08,290487,,,
1465733008290487,1208205142290487,574133,23,MAHATFIELD,2023-09-13 06:19:08,290487,,,
1465733009290487,1208205142290487,574134,23,MAHATFIELD,2023-09-13 06:19:08,290487,,,
1465733010290487,1208205142290487,574135,23,MAHATFIELD,2023-09-13 06:19:08,290487,,,
1465733011290487,1208205142290487,574136,23,MAHATFIELD,2023-09-13 06:19:08,290487,,,
1465733012290487,1208205142290487,574137,23,MAHATFIELD,2023-09-13 06:19:08,290487,,,
1465733013290487,1208205142290487,574138,23,MAHATFIELD,2023-09-13 06:19:08,290487,,,
1465733014290487,1208205142290487,574139,23,MAHATFIELD,2023-09-13 06:19:08,290487,,,
1465733015290487,1208205142290487,574140,23,MAHATFIELD,2023-09-13 06:19:08,290487,,,
1465733016290487,1208205142290487,574141,23,MAHATFIELD,2023-09-13 06:19:08,290487,,,
1465733017290487,1208205142290487,574142,23,MAHATFIELD,2023-09-13 06:19:08,290487,,,
1465733018290487,1208205142290487,574143,23,MAHATFIELD,2023-09-13 06:19:08,290487,,,
1465733019290487,1208205142290487,574144,23,MAHATFIELD,2023-09-13 06:19:08,290487,,,
1465733020290487,1208205142290487,574145,23,MAHATFIELD,2023-09-13 06:19:08,290487,,,
1465733021290487,1208205142290487,574146,23,MAHATFIELD,2023-09-13 06:19:08,290487,,,
1465733022290487,1208205142290487,574147,23,MAHATFIELD,2023-09-13 06:19:08,290487,,,
1465733023290487,1208205142290487,574148,23,MAHATFIELD,2023-09-13 06:19:08,290487,,,
1465733024290487,1208205142290487,574149,23,MAHATFIELD,2023-09-13 06:19:08,290487,,,
1465733025290487,1208205142290487,574150,23,MAHATFIELD,2023-09-13 06:19:08,290487,,,
1465733026290487,1208205142290487,574151,23,MAHATFIELD,2023-09-13 06:19:08,290487,,,
1465733027290487,1208205142290487,574152,23,MAHATFIELD,2023-09-13 06:19:08,290487,,,
1465733028290487,1208205142290487,574153,23,MAHATFIELD,2023-09-13 06:19:08,290487,,,
1465733029290487,1208205142290487,574154,23,MAHATFIELD,2023-09-13 06:19:08,290487,,,
1465733030290487,1208205142290487,574155,23,MAHATFIELD,2023-09-13 06:19:08,290487,,,
1465733031290487,1208205142290487,574156,23,MAHATFIELD,2023-09-13 06:19:08,290487,,,
1465733032290487,1208205142290487,574157,23,MAHATFIELD,2023-09-13 06:19:08,290487,,,
1465733033290487,1208205142290487,574158,23,MAHATFIELD,2023-09-13 06:19:08,290487,,,
1465733034290487,1208205142290487,574159,23,MAHATFIELD,2023-09-13 06:19:08,290487,,,
1465538771290487,465707162489998,2653,23,MAHATFIELD,2023-09-13 06:18:17,290487,,,
1465538772290487,465707162489998,2654,23,MAHATFIELD,2023-09-13 06:18:17,290487,,,
1465538773290487,465707162489998,2661,23,MAHATFIELD,2023-09-13 06:18:17,290487,,,
1465538774290487,465707162489998,2662,23,MAHATFIELD,2023-09-13 06:18:17,290487,,,
1465538775290487,465707162489998,2665,23,MAHATFIELD,2023-09-13 06:18:17,290487,,,
1465538776290487,465707162489998,2667,23,MAHATFIELD,2023-09-13 06:18:17,290487,,,
1465538777290487,465707162489998,2668,23,MAHATFIELD,2023-09-13 06:18:17,290487,,,
1465538778290487,465707162489998,2669,23,MAHATFIELD,2023-09-13 06:18:17,290487,,,
1465538779290487,465707162489998,2674,23,MAHATFIELD,2023-09-13 06:18:17,290487,,,
1465538780290487,465707162489998,2675,23,MAHATFIELD,2023-09-13 06:18:17,290487,,,
1465538781290487,465707162489998,2676,23,MAHATFIELD,2023-09-13 06:18:17,290487,,,
1465538782290487,465707162489998,2677,23,MAHATFIELD,2023-09-13 06:18:17,290487,,,
1465538783290487,465707162489998,2680,23,MAHATFIELD,2023-09-13 06:18:17,290487,,,
1465538784290487,465707162489998,2681,23,MAHATFIELD,2023-09-13 06:18:17,290487,,,
1465732944290487,1208205142290487,574069,23,MAHATFIELD,2023-09-13 06:19:08,290487,,,
1465732945290487,1208205142290487,574070,23,MAHATFIELD,2023-09-13 06:19:08,290487,,,
1465732946290487,1208205142290487,574071,23,MAHATFIELD,2023-09-13 06:19:08,290487,,,
1465732947290487,1208205142290487,574072,23,MAHATFIELD,2023-09-13 06:19:08,290487,,,
1465732948290487,1208205142290487,574073,23,MAHATFIELD,2023-09-13 06:19:08,290487,,,
1465732949290487,1208205142290487,574074,23,MAHATFIELD,2023-09-13 06:19:08,290487,,,
1465732950290487,1208205142290487,574075,23,MAHATFIELD,2023-09-13 06:19:08,290487,,,
1465732951290487,1208205142290487,574076,23,MAHATFIELD,2023-09-13 06:19:08,290487,,,
1465732952290487,1208205142290487,574077,23,MAHATFIELD,2023-09-13 06:19:08,290487,,,
1465732953290487,1208205142290487,574078,23,MAHATFIELD,2023-09-13 06:19:08,290487,,,
1465732954290487,1208205142290487,574079,23,MAHATFIELD,2023-09-13 06:19:08,290487,,,
1465732955290487,1208205142290487,574080,23,MAHATFIELD,2023-09-13 06:19:08,290487,,,
1465732956290487,1208205142290487,574081,23,MAHATFIELD,2023-09-13 06:19:08,290487,,,
1465732957290487,1208205142290487,574082,23,MAHATFIELD,2023-09-13 06:19:08,290487,,,
1465732958290487,1208205142290487,574083,23,MAHATFIELD,2023-09-13 06:19:08,290487,,,
1465732959290487,1208205142290487,574084,23,MAHATFIELD,2023-09-13 06:19:08,290487,,,
1465732960290487,1208205142290487,574085,23,MAHATFIELD,2023-09-13 06:19:08,290487,,,
1465732961290487,1208205142290487,574086,23,MAHATFIELD,2023-09-13 06:19:08,290487,,,
1465732962290487,1208205142290487,574087,23,MAHATFIELD,2023-09-13 06:19:08,290487,,,
1465732963290487,1208205142290487,574088,23,MAHATFIELD,2023-09-13 06:19:08,290487,,,
1465732964290487,1208205142290487,574089,23,MAHATFIELD,2023-09-13 06:19:08,290487,,,
1465732965290487,1208205142290487,574090,23,MAHATFIELD,2023-09-13 06:19:08,290487,,,
1465732966290487,1208205142290487,574091,23,MAHATFIELD,2023-09-13 06:19:08,290487,,,
1465732967290487,1208205142290487,574092,23,MAHATFIELD,2023-09-13 06:19:08,290487,,,
1465732968290487,1208205142290487,574093,23,MAHATFIELD,2023-09-13 06:19:08,290487,,,
1465732969290487,1208205142290487,574094,23,MAHATFIELD,2023-09-13 06:19:08,290487,,,
1465732970290487,1208205142290487,574095,23,MAHATFIELD,2023-09-13 06:19:08,290487,,,
1465732971290487,1208205142290487,574096,23,MAHATFIELD,2023-09-13 06:19:08,290487,,,
1465732972290487,1208205142290487,574097,23,MAHATFIELD,2023-09-13 06:19:08,290487,,,
1465732973290487,1208205142290487,574098,23,MAHATFIELD,2023-09-13 06:19:08,290487,,,
1465732974290487,1208205142290487,574099,23,MAHATFIELD,2023-09-13 06:19:08,290487,,,
1465732975290487,1208205142290487,574100,23,MAHATFIELD,2023-09-13 06:19:08,290487,,,
1465732976290487,1208205142290487,574101,23,MAHATFIELD,2023-09-13 06:19:08,290487,,,
1465732977290487,1208205142290487,574102,23,MAHATFIELD,2023-09-13 06:19:08,290487,,,
1465732978290487,1208205142290487,574103,23,MAHATFIELD,2023-09-13 06:19:08,290487,,,